Weather in Maloye Polpino

Russia / Bryansk Oblast     53°16′38″N   34°37′21″E
temp.,
°C
wind,
m/s
gust,
m/s
humid.,
%
clouds,
%
prec.,
mm/h
press.,
hPa
HPBL,
m
15 august, mon
mon1500:00+17e39895 0.0 1018180
03:00+16ene388820 0.0 1018157
06:00+16ene3108590 0.0 1018194
09:00+18ene31073100 0.0 1018306
12:00+26e4645100 0.0 1017795
15:00+28e464296 0.0 10161283
18:00+26e4751100 0.0 1016867
21:00+20ene31273100 0.0 1017288
16 august, tue
tue1600:00+20ene41265100 0.0 1016287
03:00+19ene41162100 0.0 1016267
06:00+18ene51356100 0.0 1015361
09:00+22e51450100 0.0 1016479
12:00+26ese6114197 0.0 1016854
15:00+25e41047100 0.0 1016775
18:00+24e41049100 0.0 1016503
21:00+22ene41252100 0.0 1016370
17 august, wed
wed1700:00+22ene41345100 0.0 1015376
03:00+20ene31051100 0.0 1014298
06:00+19ene3105797 0.0 1013287
09:00+21e41157100 0.0 1014421
12:00+23e386698 0.0 1013318
15:00+28e4741100 0.0 1013959
18:00+24ene41157100 0.0 1014548
21:00+22ene41360100 0.0 1013436
18 august, thu
thu1800:00+20ene31164100 0.1 1013336
03:00+19ne396997 0.1 1013232
06:00+19ene31062100 0.0 1014282
09:00+22ene4115381 0.0 1014431
12:00+28ene5835100 0.0 10141197
15:00+29ene683487 0.0 10131349
18:00+27ene594111 0.0 10141193
21:00+21ne412538 0.0 1014336
19 august, fri
fri1900:00+19ne3126344 0.0 1014316
03:00+18ne3116510 0.0 1013283
06:00+17ne411697 0.0 1014289
09:00+22ene48585 0.0 1014430
12:00+27e684634 0.0 10141130
15:00+29e574284 0.0 10141703
18:00+26e585232 0.0 10141092
21:00+21ne412735 0.1 1015343